Powrót do katalogu

STARLINK-2469

AktywnyŁącznośćVLEO
NORAD 48128·PAYLOAD·🇺🇸 United States

Wystrzelony Apr 7, 2021 z Cape Canaveral Space Force Station

Loading…

Następne Przeloty (najbliższe 24 godziny)

TLE

ŚwieżeSource: CelesTrak SupGP

Epoka: Sep 14, 2026, 19:35 UTC

1 48128C 21027AN  26257.81645833  .00051174  00000+0  10513-2 0  2571
2 48128  53.0983 304.0994 0004958  35.7798  77.0386 15.45369936    10

Śledź STARLINK-2469 w czasie rzeczywistym z AllMySat

Download on the App Store